Regional Weather Roundup
Issued by NWS

Home | Current Version | Previous Version | Text Only | Print | Product List | Glossary Off
Versions: 1 2 3 4 5 6 7 8 9 10 11 12 13 14 15 16 17 18 19 20 21 22 23 24 25 26 27 28 29 30 31 32 33 34 35 36 37 38 39 40 41 42 43 44 45 46 47 48 49 50

000
ASUS45 KBOU 072007
RWRCO

WEATHER ROUNDUP FOR COLORADO
NATIONAL WEATHER SERVICE DENVER/BOULDER CO
100 PM MST SUN FEB 07 2016

NOTE: "FAIR" INDICATES FEW OR NO CLOUDS BELOW 12000 FEET WITH NO
SIGNIFICANT WEATHER AND/OR OBSTRUCTIONS TO VISIBILITY.

COZ001>005-013-030-031-072100-
...NORTHWEST COLORADO...

CITY           SKY/WX    TMP DP  RH WIND       PRES   REMARKS
CRAIG          CLOUDY    20  12  71 CALM      30.48F
HAYDEN         CLOUDY    21  12  68 CALM      30.47F
MEEKER         SUNNY     29  17  61 CALM      30.47F
MOUNT WERNER   NOT AVBL
STEAMBOAT SPGS CLOUDY    28  15  60 CALM      30.44F
WALDEN         CLOUDY    30  16  55 W3        30.36S
$$

COZ006>008-011-072100-
...WEST CENTRAL VALLEYS...

CITY           SKY/WX    TMP DP  RH WIND       PRES   REMARKS
GRAND JUNCTION SUNNY     29  18  63 CALM      30.51F
MONTROSE       SUNNY     32  16  51 CALM      30.50F
EAGLE          SUNNY     32  18  55 CALM      30.45F
RIFLE          SUNNY     28  14  55 CALM      30.50F
DELTA          SUNNY     34  18  52 CALM      30.51F
NUCLA          SUNNY     34  19  55 CALM      30.49F
$$

COZ017>023-064>068-072100-
...SOUTHWEST COLORADO...

CITY           SKY/WX    TMP DP  RH WIND       PRES   REMARKS
DURANGO        CLOUDY    30  16  56 NE6       30.38F WCI  24
CORTEZ         SUNNY     38  23  55 SW8       30.38F
PAGOSA SPRINGS CLOUDY    32  18  56 CALM      30.36F
TELLURIDE      SUNNY     39  11  32 W9        30.43F
WOLF CREEK PAS SUNNY     32   5  32 S5        30.43F WCI  27
$$

COZ009-010-012-014-032>034-037-058>063-072100-
...CENTRAL COLORADO...

CITY           SKY/WX    TMP DP  RH WIND       PRES   REMARKS
ASPEN          SUNNY     37  15  40 N10       30.41F
BUENA VISTA    CLOUDY    42  12  29 NW8G29    30.28R
COPPER MTN     CLOUDY    23  10  58 NW21G37   30.36S WCI   8
BERTHOUD PASS  LGT SNOW  10   0  61 NW43      30.25F VSB 1   WCI -15
COTTONWOOD PAS CLOUDY    36   5  27 W18G41    30.23F
GUNNISON       CLOUDY     5  -6  61 CALM      30.51F
KREMMLING      CLOUDY    30  16  55 SE7       30.41F WCI  23
LEADVILLE      CLOUDY    27  10  49 NW16G30   30.36F WCI  15
MONARCH PASS   CLOUDY    19  12  73 MISG      30.45S
SALIDA         NOT AVBL
SUNLIGHT       SUNNY     27  19  74 SW6       30.47R WCI  20
WILKERSON PASS CLOUDY    27   9  46 NW10G28   30.33S WCI  17
$$

COZ069>075-072100-
...SAN LUIS VALLEY/SANGRE DE CRISTO MOUNTAINS...

CITY           SKY/WX    TMP DP  RH WIND       PRES   REMARKS
ALAMOSA        SUNNY     38  14  37 S5        30.33F
LA VETA PASS   SUNNY     37  14  38 SW7       30.32S
SAGUACHE       CLOUDY    43  18  36 NW12G17   30.33F
$$

COZ035-036-038>040-072100-
...NORTHERN COLORADO FRONT RANGE...

CITY           SKY/WX    TMP DP  RH WIND       PRES   REMARKS
DENVER INTL AP PTSUNNY   29  21  72 SE12      30.31F WCI  19
DMNS CITY PARK   N/A     33  20  59 E18G26    30.31F WCI  21
AURORA         PTSUNNY   30  20  66 E9        30.32F WCI  21
FRONT RANGE AP PTSUNNY   28  21  74 SE7G18    30.31F WCI  21
ERIE MUNI ARPT CLOUDY    33  23  66 SE12      30.32F WCI  24
BOULDER MUN AP CLOUDY    36  21  55 SE9       30.30F
CENTENNIAL     PTSUNNY   29  19  66 E9        30.30F WCI  20
BROOMFIELD     MOSUNNY   32  21  64 SE13      30.31  WCI  22
FORT COLLINS   SUNNY     30  21  69 S17       30.29F WCI  18
LONGMONT       SUNNY     38  22  53 SE12      30.33F
$$

COZ041-046-047-076>085-087-088-072100-
...PIKES PEAK/PALMER DIVIDE AND SOUTHERN FOOTHILLS...

CITY           SKY/WX    TMP DP  RH WIND       PRES   REMARKS
COLO. SPRINGS  PTSUNNY   32  19  58 E7        30.29F WCI  26
A. F. ACADEMY  SUNNY     33  19  56 S7        30.26F WCI  27
SCHRIEVER AFB  FAIR      28  20  73 N13       30.29F WCI  17
ELLICOTT       NOT AVBL
FALCON         SUNNY     30  19  62 NE12      30.28F WCI  20
FORT CARSON    SUNNY     33  22  63 SE10      30.28F WCI  25
LIMON          MOSUNNY   28  21  75 N15       30.32F WCI  16
MONUMENT HILL  SUNNY     25  18  74 E6        30.29F WCI  18
TRINIDAD       SUNNY     51  18  27 NE12      30.24F
$$

COZ042>045-048>051-090-091-072100-
...NORTHEAST COLORADO...

CITY           SKY/WX    TMP DP  RH WIND       PRES   REMARKS
GREELEY ARPT   SUNNY     36  27  69 S9        30.28F
AKRON          CLOUDY    30  19  63 NW28G38   30.29F WCI  15
BURLINGTON     SUNNY     34  19  54 NW21      30.30F WCI  22
WRAY           PTSUNNY   37  20  50 NW26G32   30.27F
STERLING       MOSUNNY   34  23  64 N29G39    30.27F HAZE    WCI  20
HOLYOKE        SUNNY     37  23  56 NW24G31   30.27S
FORT MORGAN    CLOUDY    35  20  55 NW14G20   30.33F WCI  26
$$

COZ086-089-092>099-072100-
...SOUTHEAST COLORADO...

CITY           SKY/WX    TMP DP  RH WIND       PRES   REMARKS
PUEBLO         SUNNY     39  22  50 E20       30.32R
LA JUNTA       SUNNY     39  23  52 NE21G26   30.34S
LAMAR          SUNNY     43  19  38 N20G31    30.32F
SPRINGFIELD      N/A     44  17  33 N21G26    30.28F
$$



USA.gov is the U.S. government's official web portal to all federal, state and local government web resources and services.